Le nostre stazioni meteo in Italia

Pubblicità
Il mio iltempo24.it
Tyndrum, Gran Bretagna (99020): Temperatura & dewpoint: 17.05.2017 15:00:00 - 23.05.2017 15:00:00 (BST)Tyndrum, Gran Bretagna (99020): Temperatura 5cm: 17.05.2017 15:00:00 - 23.05.2017 15:00:00 (BST)Tyndrum, Gran Bretagna (99020): visibility: 17.05.2017 15:00:00 - 23.05.2017 15:00:00 (BST)Tyndrum, Gran Bretagna (99020): precipitazioni: 17.05.2017 15:00:00 - 23.05.2017 15:00:00 (BST)
Data & Tempo tt [°C] td [°C] tt 5cm [°C] vv [km] rr [mm]
23.05.2017 15:00:00 13,9 7,2 - - -
23.05.2017 14:00:00 13,7 8,0 - - 0,0
23.05.2017 13:00:00 14,5 7,9 - - 0,0
23.05.2017 12:00:00 13,5 9,1 - - 0,0
23.05.2017 11:00:00 11,8 8,4 - - 0,0
23.05.2017 10:00:00 10,5 7,6 10,9 4,0 0,0
23.05.2017 09:00:00 10,2 7,4 - - 0,0
23.05.2017 08:00:00 10,2 7,6 - - 0,0
23.05.2017 07:00:00 9,4 8,8 - - 0,0
23.05.2017 06:00:00 8,3 8,0 - - 0,0
23.05.2017 05:00:00 7,8 7,2 - - 0,0
23.05.2017 04:00:00 8,2 7,2 - - 0,2
23.05.2017 03:00:00 8,5 7,8 - - 0,0
23.05.2017 02:00:00 8,4 8,1 - - 0,2
23.05.2017 01:00:00 7,1 6,9 - - 0,0
23.05.2017 00:00:00 7,2 7,0 - - 0,0
22.05.2017 23:00:00 7,0 6,7 - - 0,0
22.05.2017 22:00:00 7,1 6,4 - - 0,0
22.05.2017 21:00:00 8,5 7,9 - - 0,0
22.05.2017 20:00:00 8,7 7,7 - - 1,8
22.05.2017 19:00:00 9,8 8,1 - - 0,2
22.05.2017 18:00:00 12,6 11,7 - - 2,4
22.05.2017 17:00:00 12,8 11,3 - - 2,2
22.05.2017 16:00:00 13,2 10,6 - - 0,2
22.05.2017 15:00:00 14,2 10,8 - - 0,2
22.05.2017 14:00:00 13,2 9,0 - - 0,0
22.05.2017 13:00:00 14,7 8,1 - - 0,0
22.05.2017 12:00:00 13,2 8,5 - - 0,0
22.05.2017 11:00:00 13,5 8,2 - - 0,0
22.05.2017 10:00:00 13,0 8,7 - 10 0,0
22.05.2017 09:00:00 12,8 8,1 - - 0,0
22.05.2017 08:00:00 12,6 8,6 - - 0,0
22.05.2017 07:00:00 12,0 9,1 - - 0,0
22.05.2017 06:00:00 9,8 8,4 - - 0,0
22.05.2017 05:00:00 9,9 8,5 - - 0,0
22.05.2017 04:00:00 9,8 8,6 - - 0,0
22.05.2017 03:00:00 10,1 8,5 - - 0,0
22.05.2017 02:00:00 9,8 8,0 - - 0,0
22.05.2017 01:00:00 10,0 7,4 - - 0,0
22.05.2017 00:00:00 11,4 7,4 - - 0,0
21.05.2017 23:00:00 11,7 7,1 - - 0,0
21.05.2017 22:00:00 11,6 7,2 - - 0,0
21.05.2017 21:00:00 12,0 6,7 - - 0,0
21.05.2017 20:00:00 11,8 7,6 - - 0,0
21.05.2017 19:00:00 12,4 9,1 - - 0,6
21.05.2017 18:00:00 12,1 10,0 - - 0,2
21.05.2017 17:00:00 12,9 9,4 - - 0,0
21.05.2017 16:00:00 14,0 9,6 - - 0,0
21.05.2017 15:00:00 13,2 11,0 - - 0,0
21.05.2017 14:00:00 11,7 10,0 - - 0,6
21.05.2017 13:00:00 10,6 9,1 - - 1,4
21.05.2017 12:00:00 11,1 8,6 - - 0,4
21.05.2017 11:00:00 10,1 7,7 - - 0,4
21.05.2017 10:00:00 9,9 7,7 10,3 2,8 0,0
21.05.2017 09:00:00 10,2 7,0 - - 0,0
21.05.2017 08:00:00 9,3 7,3 - - 0,0
21.05.2017 07:00:00 7,8 7,3 - - 0,0
21.05.2017 06:00:00 7,2 6,8 - - 0,0
21.05.2017 05:00:00 6,8 6,4 - - 0,0
21.05.2017 04:00:00 6,8 6,1 - - 0,0
21.05.2017 03:00:00 7,1 6,0 - - 0,0
21.05.2017 02:00:00 6,4 5,6 - - 0,2
21.05.2017 01:00:00 7,3 5,7 - - 0,0
21.05.2017 00:00:00 8,3 6,4 - - 0,0
20.05.2017 23:00:00 8,9 6,3 - - 0,0
20.05.2017 22:00:00 9,2 6,4 - - 0,0
20.05.2017 21:00:00 10,3 5,5 - - 0,0
20.05.2017 20:00:00 11,7 4,4 - - 0,0
20.05.2017 19:00:00 11,8 5,2 - - 0,0
20.05.2017 18:00:00 11,9 5,5 - - 0,0
20.05.2017 17:00:00 12,8 7,0 - - 0,0
20.05.2017 16:00:00 10,6 7,4 - - 0,2
20.05.2017 15:00:00 9,2 7,8 - - 0,6
20.05.2017 14:00:00 9,3 7,6 - - 1,4
20.05.2017 13:00:00 11,2 7,9 - - 0,0
20.05.2017 12:00:00 11,3 9,6 - - 0,4
20.05.2017 11:00:00 9,8 8,2 - - 0,2
20.05.2017 10:00:00 9,3 8,4 9,3 20 0,2
20.05.2017 09:00:00 8,7 8,3 - - 0,2
20.05.2017 08:00:00 8,2 8,0 - - 1,0
20.05.2017 07:00:00 7,7 7,5 - - 0,8
20.05.2017 06:00:00 7,6 7,3 - - 1,2
20.05.2017 05:00:00 7,7 7,4 - - 0,8
20.05.2017 04:00:00 8,0 7,7 - - 0,4
20.05.2017 03:00:00 8,2 8,0 - - 0,2
20.05.2017 02:00:00 8,3 8,1 - - 0,0
20.05.2017 01:00:00 8,2 7,9 - - 0,2
20.05.2017 00:00:00 8,3 7,9 - - 0,4
19.05.2017 23:00:00 8,3 7,9 - - 1,0
19.05.2017 22:00:00 8,4 7,9 - - 3,4
19.05.2017 21:00:00 8,7 7,8 - - 1,0
19.05.2017 20:00:00 9,9 7,0 - - 1,0
19.05.2017 19:00:00 12,7 6,4 - - 0,0
19.05.2017 18:00:00 13,4 6,3 - - 0,0
19.05.2017 17:00:00 14,2 5,3 - - 0,0
19.05.2017 16:00:00 13,9 4,9 - - 0,0
19.05.2017 15:00:00 14,1 5,3 - - 0,0
19.05.2017 14:00:00 14,0 5,4 - - 0,0
19.05.2017 13:00:00 13,3 6,1 - - 0,0
19.05.2017 12:00:00 12,8 6,2 - - 0,0
19.05.2017 11:00:00 12,8 6,1 - - 0,0
19.05.2017 10:00:00 12,2 5,7 12,3 3,2 0,0
19.05.2017 09:00:00 8,8 6,9 - - 0,0
19.05.2017 08:00:00 4,5 4,4 - - 0,0
19.05.2017 07:00:00 2,1 2,0 - - 0,0
19.05.2017 06:00:00 0,6 0,2 - - 0,0
19.05.2017 05:00:00 0,7 0,2 - - 0,0
19.05.2017 04:00:00 1,6 1,1 - - 0,0
19.05.2017 03:00:00 2,0 1,5 - - 0,0
19.05.2017 02:00:00 2,3 1,7 - - 0,0
19.05.2017 01:00:00 3,0 2,1 - - 0,0
19.05.2017 00:00:00 4,0 2,7 - - 0,0
18.05.2017 23:00:00 5,3 4,1 - - 0,0
18.05.2017 22:00:00 7,1 4,6 - - 0,0
18.05.2017 21:00:00 8,4 4,8 - - 0,0
18.05.2017 20:00:00 10,1 4,5 - - 0,0
18.05.2017 19:00:00 14,0 4,2 - - 0,0
18.05.2017 18:00:00 11,9 4,9 - - 0,0
18.05.2017 17:00:00 13,8 3,9 - - 0,0
18.05.2017 16:00:00 12,6 5,2 - - 0,0
18.05.2017 15:00:00 11,7 5,6 - - 0,6
18.05.2017 14:00:00 13,7 6,3 - - 0,2
18.05.2017 13:00:00 10,1 4,7 - - 0,0
18.05.2017 12:00:00 12,6 5,7 - - 0,0
18.05.2017 11:00:00 11,7 2,9 - - 0,0
18.05.2017 10:00:00 11,0 5,6 11,3 1,8 0,0
18.05.2017 09:00:00 10,4 5,9 - - 0,0
18.05.2017 08:00:00 7,2 6,7 - - 0,0
18.05.2017 07:00:00 4,2 4,1 - - 0,0
18.05.2017 06:00:00 1,5 1,1 - - 0,0
18.05.2017 05:00:00 2,0 1,7 - - 0,0
18.05.2017 04:00:00 2,0 1,5 - - 0,0
18.05.2017 03:00:00 2,6 2,1 - - 0,0
18.05.2017 02:00:00 3,3 2,3 - - 0,0
18.05.2017 01:00:00 5,4 4,1 - - 0,0
18.05.2017 00:00:00 7,0 6,4 - - 0,0
17.05.2017 23:00:00 8,0 6,7 - - 0,0
17.05.2017 22:00:00 9,4 8,0 - - 0,0
17.05.2017 21:00:00 9,8 8,1 - - 0,0
17.05.2017 20:00:00 10,1 7,8 - - 0,2
17.05.2017 19:00:00 10,8 7,9 - - 0,2
17.05.2017 18:00:00 13,4 6,2 - - 0,0
17.05.2017 17:00:00 14,3 6,1 - - 0,0
17.05.2017 16:00:00 14,0 5,4 - - 0,0
17.05.2017 15:00:00 13,5 5,7 - - 0,0

tt = Temperatura
td = dewpoint
tt 5cm = Temperatura 5cm
vv = visibility
rr = precipitazioni

Stazioni seguenti

WeatherPro
AMSI
MeteoEarth